VLG7339 GMMI-LEBL

Flight info

Callsign VLG7339
Flight time 2h 0m
Altitude 38000
Route ESS UN871 OSDAM UM985 BARPA DCT XAVIR DCT PIMOS DCT RIXUR DCT PEPAS DCT ARPEX DCT KOSEL DCT BUDIT DCT ETURA DCT TOSTO DCT OLPOS DCT BEGOX DCT VLC L34 CASIM DCT MATEX
Aircraft A21N/M-SDE2E3FGHIRWXY/LB1

Departure

Time 2026-05-04 14:13
Airport Essaouira-Mogador Airport (GMMI)

Arrival

Time 2026-05-04 16:13
Airport Josep Tarradellas Barcelona-El Prat Airport (LEBL)
Time Latitude Longitude Altitude Speed Heading
2026-05-04 13:41 31.40386 -9.68757 393 ft 0 kts 335°
2026-05-04 14:02 31.40375 -9.68751 395 ft 3 kts 355°
2026-05-04 14:02 31.40361 -9.68754 391 ft 3 kts 51°
2026-05-04 14:03 31.40354 -9.68767 396 ft 1 kts 69°
2026-05-04 14:07 31.40354 -9.68766 395 ft 0 kts 78°
2026-05-04 14:07 31.40352 -9.68737 396 ft 9 kts 92°
2026-05-04 14:08 31.40327 -9.68675 395 ft 6 kts 151°
2026-05-04 14:08 31.40282 -9.68652 392 ft 8 kts 157°
2026-05-04 14:08 31.40224 -9.68623 396 ft 10 kts 157°
2026-05-04 14:08 31.40152 -9.68587 392 ft 12 kts 157°
2026-05-04 14:09 31.40079 -9.68454 393 ft 16 kts 103°
2026-05-04 14:09 31.40006 -9.68342 396 ft 21 kts 157°
2026-05-04 14:10 31.39631 -9.68181 399 ft 35 kts 159°
2026-05-04 14:10 31.39413 -9.68076 397 ft 31 kts 158°
2026-05-04 14:10 31.39223 -9.67984 395 ft 28 kts 157°
2026-05-04 14:10 31.39037 -9.67900 399 ft 29 kts 160°
2026-05-04 14:11 31.38867 -9.67856 395 ft 18 kts 182°
2026-05-04 14:11 31.38849 -9.67826 397 ft 0 kts 36°
2026-05-04 14:11 31.38856 -9.67825 397 ft 3 kts
2026-05-04 14:12 31.38862 -9.67827 396 ft 1 kts 341°
2026-05-04 14:12 31.38938 -9.67858 394 ft 39 kts 339°
2026-05-04 14:12 31.40325 -9.68458 704 ft 149 kts 343°
2026-05-04 14:13 31.41351 -9.68807 1369 ft 154 kts 347°
2026-05-04 14:13 31.42351 -9.69146 2320 ft 149 kts 346°
2026-05-04 14:13 31.43457 -9.69551 2788 ft 187 kts 348°
2026-05-04 14:13 31.44806 -9.70094 3210 ft 221 kts 346°
2026-05-04 14:14 31.46332 -9.70786 3763 ft 247 kts 346°
2026-05-04 14:14 31.49753 -9.70228 5549 ft 261 kts 25°
2026-05-04 14:14 31.51378 -9.69202 6558 ft 270 kts 31°
2026-05-04 14:15 31.54591 -9.66648 8587 ft 286 kts 33°
2026-05-04 14:15 31.57948 -9.63876 10596 ft 308 kts 31°
2026-05-04 14:16 31.61772 -9.60858 11846 ft 348 kts 30°
2026-05-04 14:16 31.63815 -9.59275 12817 ft 355 kts 30°
2026-05-04 14:17 31.68027 -9.56029 14681 ft 368 kts 30°
2026-05-04 14:17 31.70193 -9.54362 15477 ft 376 kts 30°
2026-05-04 14:17 31.74623 -9.50943 17283 ft 386 kts 30°
2026-05-04 14:18 31.76890 -9.49189 18122 ft 393 kts 30°
2026-05-04 14:18 31.81527 -9.45599 19572 ft 405 kts 30°
2026-05-04 14:19 31.86304 -9.41895 20987 ft 416 kts 30°
2026-05-04 14:19 31.88738 -9.40005 21684 ft 422 kts 30°
2026-05-04 14:19 31.91174 -9.38113 22345 ft 427 kts 29°
2026-05-04 14:19 31.93672 -9.36172 23006 ft 432 kts 29°
2026-05-04 14:20 31.96195 -9.34210 23643 ft 437 kts 29°
2026-05-04 14:20 31.98746 -9.32225 24218 ft 442 kts 29°
2026-05-04 14:20 32.01318 -9.30222 24861 ft 444 kts 30°
2026-05-04 14:21 32.06495 -9.26184 26089 ft 449 kts 30°
2026-05-04 14:21 32.09109 -9.24143 26619 ft 452 kts 30°
2026-05-04 14:21 32.11738 -9.22089 27155 ft 455 kts 30°
2026-05-04 14:21 32.14385 -9.20020 27658 ft 458 kts 30°
2026-05-04 14:22 32.17049 -9.17937 28155 ft 461 kts 30°
2026-05-04 14:22 32.19734 -9.15836 28648 ft 463 kts 30°
2026-05-04 14:22 32.22429 -9.13725 29136 ft 466 kts 30°
2026-05-04 14:22 32.24219 -9.12322 29450 ft 468 kts 30°
2026-05-04 14:23 32.29678 -9.08040 30335 ft 474 kts 30°
2026-05-04 14:23 32.32434 -9.05876 30656 ft 478 kts 30°
2026-05-04 14:23 32.35220 -9.03688 30968 ft 482 kts 30°
2026-05-04 14:24 32.38019 -9.01488 31365 ft 483 kts 29°
2026-05-04 14:24 32.40814 -8.99288 31837 ft 483 kts 29°
2026-05-04 14:24 32.43611 -8.97084 32265 ft 483 kts 29°
2026-05-04 14:24 32.46408 -8.94879 32690 ft 483 kts 29°
2026-05-04 14:25 32.49213 -8.92666 33092 ft 484 kts 29°
2026-05-04 14:25 32.54819 -8.88238 33886 ft 484 kts 28°
2026-05-04 14:25 32.57626 -8.86018 34240 ft 485 kts 28°
2026-05-04 14:26 32.60431 -8.83800 34571 ft 485 kts 28°
2026-05-04 14:26 32.63240 -8.81575 34902 ft 485 kts 28°
2026-05-04 14:26 32.66048 -8.79350 35220 ft 486 kts 28°
2026-05-04 14:26 32.68858 -8.77122 35537 ft 486 kts 28°
2026-05-04 14:27 32.71673 -8.74888 35842 ft 486 kts 28°
2026-05-04 14:27 32.74493 -8.72647 36149 ft 487 kts 28°
2026-05-04 14:27 32.77313 -8.70406 36444 ft 487 kts 28°
2026-05-04 14:27 32.80133 -8.68163 36728 ft 488 kts 27°
2026-05-04 14:28 32.82953 -8.65917 37006 ft 488 kts 27°
2026-05-04 14:28 32.85751 -8.63688 37289 ft 489 kts 27°
2026-05-04 14:28 32.88582 -8.61432 37569 ft 490 kts 27°
2026-05-04 14:28 32.91419 -8.59168 37794 ft 491 kts 27°
2026-05-04 14:29 32.97097 -8.54632 38070 ft 491 kts 27°
2026-05-04 14:29 33.02782 -8.50080 38075 ft 490 kts 27°
2026-05-04 14:30 33.08443 -8.45543 38074 ft 491 kts 27°
2026-05-04 14:31 33.16935 -8.38724 38080 ft 491 kts 27°
2026-05-04 14:32 33.28359 -8.29940 38082 ft 488 kts 25°
2026-05-04 14:32 33.34128 -8.25633 38081 ft 488 kts 25°
2026-05-04 14:33 33.39882 -8.21311 38088 ft 488 kts 25°
2026-05-04 14:33 33.45634 -8.16968 38088 ft 489 kts 25°
2026-05-04 14:34 33.51390 -8.12609 38084 ft 490 kts 25°
2026-05-04 14:34 33.57152 -8.08238 38086 ft 490 kts 25°
2026-05-04 14:35 33.62910 -8.03864 38088 ft 490 kts 26°
2026-05-04 14:35 33.68668 -7.99484 38087 ft 490 kts 26°
2026-05-04 14:36 33.74395 -7.95120 38087 ft 490 kts 25°
2026-05-04 14:36 33.80160 -7.90722 38084 ft 491 kts 26°
2026-05-04 14:37 33.85918 -7.86321 38086 ft 491 kts 26°
2026-05-04 14:37 33.91677 -7.81912 38081 ft 491 kts 26°
2026-05-04 14:38 33.97437 -7.77494 38123 ft 491 kts 25°
2026-05-04 14:38 34.03196 -7.73071 38083 ft 491 kts 25°
2026-05-04 14:39 34.08952 -7.68642 38087 ft 491 kts 25°
2026-05-04 14:39 34.14711 -7.64204 38080 ft 491 kts 25°
2026-05-04 14:40 34.23346 -7.57536 38081 ft 491 kts 25°
2026-05-04 14:40 34.29097 -7.53086 38082 ft 490 kts 25°
2026-05-04 14:41 34.34850 -7.48627 38083 ft 490 kts 25°
2026-05-04 14:42 34.46338 -7.39701 38086 ft 490 kts 25°
2026-05-04 14:42 34.52053 -7.35250 38109 ft 490 kts 25°
2026-05-04 14:43 34.57788 -7.30774 38083 ft 490 kts 25°
2026-05-04 14:43 34.63515 -7.26299 38083 ft 490 kts 25°
2026-05-04 14:44 34.69243 -7.21816 38084 ft 489 kts 25°
2026-05-04 14:44 34.74968 -7.17326 38083 ft 489 kts 25°
2026-05-04 14:45 34.80680 -7.12839 38089 ft 489 kts 25°
2026-05-04 14:45 34.86392 -7.08345 38083 ft 488 kts 25°
2026-05-04 14:46 34.92091 -7.03853 38083 ft 488 kts 25°
2026-05-04 14:46 34.97799 -6.99348 38083 ft 488 kts 25°
2026-05-04 14:47 35.03495 -6.94844 38078 ft 488 kts 25°
2026-05-04 14:47 35.09190 -6.90332 38086 ft 487 kts 25°
2026-05-04 14:48 35.14873 -6.85823 38084 ft 487 kts 25°
2026-05-04 14:48 35.20564 -6.81301 38070 ft 487 kts 25°
2026-05-04 14:49 35.26244 -6.76780 38084 ft 487 kts 25°
2026-05-04 14:49 35.31887 -6.72169 38097 ft 492 kts 31°
2026-05-04 14:50 35.34429 -6.69299 38077 ft 502 kts 42°
2026-05-04 14:50 35.36549 -6.65871 38075 ft 508 kts 51°
2026-05-04 14:50 35.40297 -6.58491 38078 ft 512 kts 55°
2026-05-04 14:51 35.43846 -6.50903 38070 ft 512 kts 56°
2026-05-04 14:51 35.47453 -6.43435 38067 ft 511 kts 54°
2026-05-04 14:52 35.51191 -6.36054 38067 ft 511 kts 53°
2026-05-04 14:52 35.54972 -6.28635 38070 ft 511 kts 53°
2026-05-04 14:53 35.58737 -6.21204 38078 ft 511 kts 53°
2026-05-04 14:53 35.62459 -6.13816 38072 ft 511 kts 53°
2026-05-04 14:54 35.66197 -6.06375 38067 ft 512 kts 54°
2026-05-04 14:54 35.69931 -5.98925 38076 ft 511 kts 54°
2026-05-04 14:55 35.73555 -5.91382 38076 ft 514 kts 60°
2026-05-04 14:55 35.76764 -5.83523 38077 ft 514 kts 60°
2026-05-04 14:56 35.79880 -5.75599 38072 ft 514 kts 61°
2026-05-04 14:56 35.82980 -5.67636 38065 ft 515 kts 61°
2026-05-04 14:57 35.86141 -5.59704 38047 ft 515 kts 60°
2026-05-04 14:57 35.89333 -5.51841 38046 ft 515 kts 60°
2026-05-04 14:58 35.92535 -5.43942 38046 ft 515 kts 60°
2026-05-04 14:58 35.95193 -5.37353 38048 ft 515 kts 60°
2026-05-04 14:59 35.98919 -5.28081 38047 ft 515 kts 60°
2026-05-04 15:00 36.03773 -5.16252 38036 ft 514 kts 59°
2026-05-04 15:00 36.07081 -5.08401 38034 ft 514 kts 59°
2026-05-04 15:01 36.12020 -4.96624 38018 ft 514 kts 59°
2026-05-04 15:01 36.15621 -4.89035 38033 ft 506 kts 45°
2026-05-04 15:02 36.19453 -4.83615 38006 ft 503 kts 41°
2026-05-04 15:02 36.24264 -4.77346 38007 ft 502 kts 40°
2026-05-04 15:03 36.29141 -4.71120 37994 ft 502 kts 40°
2026-05-04 15:03 36.33987 -4.64893 37994 ft 502 kts 40°
2026-05-04 15:04 36.38789 -4.58676 37985 ft 502 kts 40°
2026-05-04 15:04 36.43619 -4.52397 37987 ft 502 kts 40°
2026-05-04 15:05 36.48444 -4.46111 37978 ft 503 kts 40°
2026-05-04 15:05 36.53265 -4.39819 37981 ft 503 kts 40°
2026-05-04 15:06 36.58085 -4.33516 37965 ft 503 kts 41°
2026-05-04 15:07 36.65312 -4.24045 37972 ft 503 kts 41°
2026-05-04 15:07 36.70127 -4.17721 37977 ft 504 kts 41°
2026-05-04 15:08 36.74955 -4.11367 37974 ft 505 kts 41°
2026-05-04 15:08 36.79783 -4.04999 37983 ft 505 kts 41°
2026-05-04 15:09 36.84606 -3.98624 37979 ft 505 kts 41°
2026-05-04 15:09 36.89426 -3.92240 37989 ft 505 kts 40°
2026-05-04 15:10 36.96668 -3.82632 38011 ft 508 kts 41°
2026-05-04 15:11 37.03928 -3.72967 37986 ft 508 kts 41°
2026-05-04 15:11 37.08765 -3.66510 37985 ft 508 kts 41°
2026-05-04 15:12 37.13629 -3.60082 37985 ft 507 kts 40°
2026-05-04 15:12 37.18544 -3.53738 38016 ft 507 kts 40°
2026-05-04 15:13 37.23477 -3.47392 37980 ft 508 kts 40°
2026-05-04 15:13 37.28398 -3.41032 37980 ft 508 kts 40°
2026-05-04 15:14 37.33321 -3.34642 37982 ft 508 kts 41°
2026-05-04 15:14 37.38229 -3.28254 37982 ft 508 kts 40°
2026-05-04 15:15 37.43134 -3.21861 37974 ft 508 kts 41°
2026-05-04 15:15 37.48002 -3.15505 37962 ft 508 kts 41°
2026-05-04 15:16 37.55353 -3.05880 37966 ft 508 kts 41°
2026-05-04 15:17 37.62688 -2.96245 37964 ft 507 kts 41°
2026-05-04 15:17 37.70019 -2.86592 37957 ft 507 kts 42°
2026-05-04 15:18 37.74899 -2.80150 37960 ft 506 kts 42°
2026-05-04 15:19 37.82168 -2.70526 37962 ft 506 kts 42°
2026-05-04 15:19 37.89487 -2.60808 37984 ft 507 kts 42°
2026-05-04 15:20 37.94346 -2.54341 37969 ft 506 kts 43°
2026-05-04 15:20 37.99195 -2.47872 37973 ft 505 kts 43°
2026-05-04 15:21 38.04004 -2.41444 37967 ft 505 kts 43°
2026-05-04 15:22 38.11250 -2.31726 37963 ft 505 kts 43°
2026-05-04 15:22 38.18509 -2.21978 37975 ft 506 kts 43°
2026-05-04 15:23 38.23090 -2.15173 37963 ft 507 kts 48°
2026-05-04 15:23 38.27500 -2.08144 37950 ft 508 kts 49°
2026-05-04 15:24 38.36213 -1.93994 37934 ft 507 kts 49°
2026-05-04 15:25 38.40568 -1.86910 37933 ft 507 kts 49°
2026-05-04 15:26 38.47090 -1.76288 37923 ft 507 kts 49°
2026-05-04 15:26 38.53588 -1.65673 37918 ft 507 kts 49°
2026-05-04 15:27 38.60082 -1.55027 37920 ft 507 kts 49°
2026-05-04 15:28 38.66582 -1.44336 37933 ft 507 kts 50°
2026-05-04 15:29 38.73050 -1.33662 37938 ft 505 kts 50°
2026-05-04 15:30 38.88078 -1.08740 37929 ft 506 kts 50°
2026-05-04 15:31 38.94510 -0.98013 37915 ft 504 kts 50°
2026-05-04 15:32 39.05217 -0.80216 37902 ft 501 kts 44°
2026-05-04 15:33 39.10618 -0.74739 37895 ft 491 kts 26°
2026-05-04 15:34 39.19578 -0.68335 37904 ft 491 kts 22°
2026-05-04 15:34 39.28611 -0.62190 37911 ft 491 kts 22°
2026-05-04 15:35 39.37648 -0.55937 37915 ft 490 kts 23°
2026-05-04 15:36 39.46648 -0.49660 37910 ft 490 kts 23°
2026-05-04 15:36 39.52555 -0.45201 37914 ft 492 kts 28°
2026-05-04 15:37 39.58316 -0.40362 37936 ft 493 kts 29°
2026-05-04 15:37 39.64042 -0.35492 37914 ft 491 kts 28°
2026-05-04 15:38 39.69778 -0.30662 37921 ft 491 kts 28°
2026-05-04 15:38 39.75508 -0.25866 37903 ft 490 kts 28°
2026-05-04 15:39 39.81245 -0.21063 37933 ft 490 kts 28°
2026-05-04 15:40 39.89838 -0.13848 37901 ft 490 kts 28°
2026-05-04 15:40 39.95555 -0.09032 37563 ft 489 kts 28°
2026-05-04 15:40 39.98412 -0.06623 37292 ft 490 kts 29°
2026-05-04 15:41 40.01275 -0.04207 37026 ft 491 kts 29°
2026-05-04 15:41 40.04142 -0.01785 36782 ft 491 kts 29°
2026-05-04 15:41 40.07011 0.00643 36510 ft 491 kts 29°
2026-05-04 15:41 40.09886 0.03077 36287 ft 492 kts 29°
2026-05-04 15:42 40.12762 0.05515 36032 ft 493 kts 29°
2026-05-04 15:42 40.15604 0.07927 35790 ft 494 kts 29°
2026-05-04 15:42 40.18486 0.10375 35546 ft 494 kts 29°
2026-05-04 15:42 40.21381 0.12780 35132 ft 491 kts 25°
2026-05-04 15:43 40.24475 0.14625 34276 ft 488 kts 14°
2026-05-04 15:43 40.27707 0.15988 33288 ft 490 kts 11°
2026-05-04 15:43 40.30981 0.17247 32336 ft 491 kts 11°
2026-05-04 15:43 40.34267 0.18486 31468 ft 491 kts 11°
2026-05-04 15:44 40.36437 0.19302 31060 ft 487 kts 11°
2026-05-04 15:44 40.39678 0.20522 30392 ft 482 kts 11°
2026-05-04 15:44 40.42896 0.21732 29613 ft 480 kts 11°
2026-05-04 15:44 40.46095 0.22937 28886 ft 475 kts 11°
2026-05-04 15:45 40.49255 0.24128 28216 ft 470 kts 11°
2026-05-04 15:45 40.52332 0.25567 27587 ft 471 kts 24°
2026-05-04 15:45 40.54995 0.28008 27201 ft 465 kts 43°
2026-05-04 15:45 40.56977 0.31331 26781 ft 461 kts 62°
2026-05-04 15:46 40.58155 0.35208 26362 ft 455 kts 76°
2026-05-04 15:46 40.58987 0.39217 25913 ft 453 kts 78°
2026-05-04 15:46 40.59808 0.43221 25505 ft 452 kts 77°
2026-05-04 15:46 40.60662 0.47193 25084 ft 449 kts 76°
2026-05-04 15:47 40.61542 0.51129 24656 ft 447 kts 76°
2026-05-04 15:47 40.62432 0.55027 24239 ft 443 kts 76°
2026-05-04 15:47 40.63328 0.58900 23829 ft 441 kts 76°
2026-05-04 15:47 40.64221 0.62746 23390 ft 438 kts 75°
2026-05-04 15:48 40.65110 0.66562 22943 ft 434 kts 75°
2026-05-04 15:48 40.65992 0.70350 22523 ft 431 kts 75°
2026-05-04 15:48 40.67723 0.77786 21718 ft 425 kts 75°
2026-05-04 15:49 40.68586 0.81500 21337 ft 423 kts 75°
2026-05-04 15:49 40.69442 0.85188 20939 ft 420 kts 75°
2026-05-04 15:49 40.70292 0.88858 20553 ft 417 kts 75°
2026-05-04 15:49 40.71135 0.92500 20159 ft 414 kts 75°
2026-05-04 15:50 40.71970 0.96116 19767 ft 410 kts 75°
2026-05-04 15:50 40.72797 0.99703 19382 ft 407 kts 75°
2026-05-04 15:50 40.73615 1.03256 19002 ft 404 kts 75°
2026-05-04 15:50 40.74429 1.06797 18631 ft 402 kts 75°
2026-05-04 15:51 40.75287 1.10290 18276 ft 400 kts 68°
2026-05-04 15:51 40.76496 1.13595 17974 ft 398 kts 67°
2026-05-04 15:51 40.77608 1.16919 17688 ft 395 kts 67°
2026-05-04 15:51 40.78743 1.20212 17428 ft 393 kts 66°
2026-05-04 15:52 40.79897 1.23475 17170 ft 391 kts 65°
2026-05-04 15:52 40.81063 1.26713 16910 ft 389 kts 65°
2026-05-04 15:52 40.82233 1.29932 16656 ft 388 kts 65°
2026-05-04 15:52 40.83403 1.33138 16397 ft 386 kts 65°
2026-05-04 15:53 40.84555 1.36286 16143 ft 384 kts 65°
2026-05-04 15:53 40.85714 1.39450 15945 ft 382 kts 65°
2026-05-04 15:53 40.86875 1.42622 15902 ft 382 kts 65°
2026-05-04 15:53 40.88027 1.45773 15902 ft 381 kts 65°
2026-05-04 15:54 40.89178 1.48921 15898 ft 381 kts 65°
2026-05-04 15:54 40.90331 1.52078 15909 ft 380 kts 65°
2026-05-04 15:54 40.91481 1.55231 15833 ft 379 kts 65°
2026-05-04 15:54 40.92621 1.58357 15597 ft 377 kts 65°
2026-05-04 15:55 40.93755 1.61474 15349 ft 376 kts 65°
2026-05-04 15:55 40.94886 1.64584 15107 ft 374 kts 65°
2026-05-04 15:55 40.96011 1.67680 14863 ft 372 kts 65°
2026-05-04 15:55 40.97128 1.70757 14624 ft 371 kts 65°
2026-05-04 15:56 40.98241 1.73829 14389 ft 369 kts 65°
2026-05-04 15:56 40.99351 1.76893 14152 ft 368 kts 65°
2026-05-04 15:56 41.00452 1.79937 13911 ft 366 kts 66°
2026-05-04 15:56 41.01549 1.82972 13672 ft 364 kts 66°
2026-05-04 15:57 41.02640 1.85996 13409 ft 363 kts 66°
2026-05-04 15:57 41.03725 1.89005 13160 ft 361 kts 66°
2026-05-04 15:57 41.04792 1.91966 12895 ft 360 kts 66°
2026-05-04 15:57 41.05869 1.94958 12631 ft 358 kts 66°
2026-05-04 15:58 41.06939 1.97937 12371 ft 357 kts 66°
2026-05-04 15:58 41.08003 2.00900 12134 ft 355 kts 66°
2026-05-04 15:58 41.09061 2.03850 11888 ft 354 kts 66°
2026-05-04 15:58 41.10115 2.06790 11634 ft 352 kts 66°
2026-05-04 15:59 41.11163 2.09718 11388 ft 350 kts 66°
2026-05-04 15:59 41.12204 2.12628 11153 ft 349 kts 66°
2026-05-04 15:59 41.13240 2.15531 10905 ft 347 kts 66°
2026-05-04 15:59 41.14267 2.18407 10629 ft 341 kts 66°
2026-05-04 16:00 41.15272 2.21225 10206 ft 334 kts 66°
2026-05-04 16:00 41.16248 2.23961 9972 ft 320 kts 66°
2026-05-04 16:00 41.17187 2.26599 9946 ft 316 kts 65°
2026-05-04 16:00 41.18238 2.29179 9909 ft 317 kts 60°
2026-05-04 16:01 41.19355 2.31643 9940 ft 305 kts 57°
2026-05-04 16:01 41.20510 2.33957 9915 ft 295 kts 60°
2026-05-04 16:01 41.21548 2.36210 9918 ft 280 kts 61°
2026-05-04 16:01 41.22595 2.38408 9814 ft 293 kts 53°
2026-05-04 16:02 41.24156 2.40299 8858 ft 315 kts 27°
2026-05-04 16:02 41.26255 2.40943 8308 ft 306 kts 355°
2026-05-04 16:02 41.30314 2.40006 7808 ft 297 kts 358°
2026-05-04 16:03 41.32315 2.40617 7563 ft 300 kts 28°
2026-05-04 16:03 41.33825 2.42473 7320 ft 296 kts 58°
2026-05-04 16:03 41.34790 2.44845 7079 ft 295 kts 66°
2026-05-04 16:03 41.35638 2.47329 6837 ft 294 kts 68°
2026-05-04 16:04 41.36467 2.49818 6596 ft 293 kts 68°
2026-05-04 16:04 41.38472 2.54428 6242 ft 280 kts 45°
2026-05-04 16:04 41.40025 2.55861 6116 ft 267 kts 21°
2026-05-04 16:05 41.41852 2.56330 5922 ft 272 kts 356°
2026-05-04 16:05 41.43664 2.55688 5315 ft 272 kts 326°
2026-05-04 16:05 41.45632 2.51876 4536 ft 250 kts 275°
2026-05-04 16:06 41.45519 2.49640 4236 ft 236 kts 250°
2026-05-04 16:06 41.43439 2.44659 3596 ft 229 kts 237°
2026-05-04 16:07 41.42339 2.42276 3416 ft 225 kts 237°
2026-05-04 16:07 41.39863 2.37013 2716 ft 223 kts 234°
2026-05-04 16:08 41.39108 2.35249 2454 ft 218 kts 243°
2026-05-04 16:08 41.37356 2.30104 2284 ft 184 kts 243°
2026-05-04 16:09 41.36279 2.27059 2289 ft 181 kts 243°
2026-05-04 16:09 41.35237 2.24033 2283 ft 181 kts 243°
2026-05-04 16:10 41.34202 2.20981 1830 ft 181 kts 243°
2026-05-04 16:11 41.32734 2.16686 1141 ft 151 kts 242°
2026-05-04 16:11 41.32316 2.15469 926 ft 139 kts 244°
2026-05-04 16:12 41.31220 2.12267 398 ft 120 kts 245°
2026-05-04 16:12 41.30211 2.09322 22 ft 99 kts 245°
2026-05-04 16:13 41.29909 2.08453 28 ft 26 kts 242°
2026-05-04 16:13 41.29754 2.08238 21 ft 7 kts 216°
2026-05-04 16:14 41.29730 2.08216 22 ft 0 kts 216°
2026-05-04 16:15 41.29695 2.08196 20 ft 1 kts 189°
2026-05-04 16:16 41.29633 2.08184 22 ft 4 kts 220°
2026-05-04 16:16 41.29547 2.07927 21 ft 17 kts 246°
2026-05-04 16:17 41.29430 2.07584 20 ft 23 kts 245°
2026-05-04 16:18 41.29235 2.07066 19 ft 9 kts 202°
2026-05-04 16:18 41.29181 2.07078 20 ft 8 kts 155°
2026-05-04 16:19 41.29090 2.07076 22 ft 3 kts 159°
2026-05-04 16:19 41.29059 2.07093 22 ft 1 kts 158°
2026-05-04 16:20 41.29055 2.07095 22 ft 0 kts 158°